Location: Le Forest
(44.3300°N, 6.1330°E)
Time: 03:51:17
(UTC+00:00)

Daily predictions for brighter satellites

Satellite Brightness Start Highest point End
(mag) Time Altitude Azimuth Time Altitude Azimuth Time Altitude Azimuth
Lacrosse 5 3.7 02:42:09 27° NE 02:42:09 27° NE 02:45:40 10° E
Cosmos 2360 Rocket 3.4 02:43:00 10° NNW 02:48:19 39° NE 02:53:35 10° SE
ARIANE 5 R/B 4.1 02:51:02 10° NNE 02:53:20 28° NNE 02:53:20 28° NNE
CZ-2C R/B 3.7 02:56:04 10° NNE 02:59:46 35° ENE 02:59:46 35° ENE
Cosmos 2082 Rocket 4.1 03:11:10 19° NNW 03:11:10 19° NNW 03:13:31 10° N
Cosmos 2333 Rocket 4.1 03:04:52 10° N 03:09:49 28° NE 03:14:45 10° ESE
ADEOS II 4.4 03:10:15 10° NNW 03:11:05 13° NNW 03:11:05 13° NNW
USA 267 3.7 03:10:45 10° NE 03:16:56 47° NNW 03:17:26 46° NW
IDEFIX/ARIANE 42P 4.2 03:14:42 10° N 03:16:53 23° NNW 03:16:53 23° NNW
BREEZE-M DEB (TANK) 3.7 03:22:53 64° NE 03:22:53 64° NE 03:25:34 10° ENE
NOSS 3-2 (A) 4.3 03:15:41 10° NNW 03:23:10 66° NE 03:31:37 10° SE
Cosmos 1553 Rocket 4.0 03:26:48 64° NW 03:26:48 64° NW 03:32:32 10° N
Cosmos 1417 Rocket 4.3 03:29:15 73° W 03:29:20 73° W 03:35:42 10° N
Cosmos 2219 Rocket 3.7 03:27:59 10° N 03:33:09 35° NE 03:38:18 10° ESE
COSMOS 2487 4.4 03:35:21 28° ENE 03:35:21 28° ENE 03:37:42 10° NE
CENTAUR R/B 3.6 03:32:08 10° NNW 03:40:08 61° NE 03:48:53 10° SE
PAYLOAD A 4.0 03:35:08 10° NNE 03:40:27 81° WNW 03:40:52 74° SW
COSMOS 2428 4.3 03:35:36 10° N 03:40:48 34° NE 03:45:58 10° ESE
Cosmos 1606 3.4 03:42:17 52° E 03:42:17 52° E 03:46:05 10° NNE
Cosmos 2315 Rocket 4.4 03:37:25 10° S 03:43:31 63° E 03:49:38 10° NNE
PSLV R/B 3.6 03:42:51 10° NNE 03:47:15 80° ESE 03:47:30 76° SSE
USA 234 3.5 03:45:00 10° SSE 03:51:10 45° SW 03:51:15 45° SW
BREEZE M DEB (TANK) 3.4 03:51:34 32° NNE 03:51:34 32° NNE 03:55:21 10° E
Lacrosse 4 Rocket 1.4 03:51:57 81° NNW 03:52:10 89° ENE 03:56:34 10° SSE
Milstar 3 Cent rocket 4.0 03:57:03 13° S 03:57:03 13° S 03:59:10 10° SSE
ATLAS 5 CENTAUR R/B 3.5 03:55:37 12° SSE 03:58:17 23° ESE 04:01:36 10° ENE
ISS -2.0 03:58:45 26° N 03:58:52 26° NNE 04:01:46 10° ENE
Cosmos 1805 Rocket 3.7 03:55:55 10° N 04:00:24 73° E 04:04:51 10° SSE
Cosmos 1743 Rocket 4.5 03:57:05 10° NNW 03:59:50 35° NNW 03:59:50 35° NNW
Cosmos 2221 3.9 04:04:42 26° NNW 04:04:42 26° NNW 04:07:01 10° N
NOSS 3-2 (C) 4.3 03:56:18 10° NW 04:03:50 72° NE 04:12:23 10° SE
Cosmos 2322 3.9 03:58:21 10° NNW 04:04:03 72° ENE 04:09:42 10° SSE
Cosmos 1992 Rocket 3.9 03:59:31 10° NNW 04:04:42 66° WSW 04:09:50 10° S
Cosmos 1933 4.4 04:02:34 10° SSE 04:06:24 45° E 04:10:16 10° NNE
Cosmos 2344 3.5 04:06:15 34° WSW 04:09:42 66° NW 04:17:39 10° NE
BREEZE-M DEB (TANK) 3.8 04:08:38 30° NW 04:10:42 59° NNE 04:24:21 10° E
FENGYUN 3A 3.6 04:05:40 10° NNE 04:11:08 84° WNW 04:15:59 13° SSW
Cosmos 1833 4.2 04:12:28 38° WSW 04:14:28 59° WNW 04:20:03 10° NNE
ATLAS 2AS CENTAUR R/B 4.3 04:07:50 10° S 04:15:00 40° ESE 04:22:08 10° NE
S3M 4.3 04:13:57 36° WSW 04:15:19 40° WNW 04:21:07 10° N
Landsat 5 3.3 04:18:43 50° SW 04:19:07 53° W 04:22:56 10° NNW
CBERS 1 LM4 rocket 4.3 04:14:23 10° NNE 04:19:13 89° ESE 04:23:56 10° SSW
Sich 1 2.9 04:17:46 10° N 04:22:13 87° W 04:26:36 10° S
Cosmos 1666 Rocket 4.1 04:19:31 10° N 04:23:51 59° E 04:28:11 10° SSE
Lacrosse 5 1.8 04:21:22 21° NW 04:24:46 85° SW 04:29:49 10° SE
SJ-6F 4.4 04:21:30 10° N 04:25:40 69° WNW 04:28:32 19° SSW
ALOS 2.3 04:22:21 10° N 04:26:58 59° WNW 04:30:10 19° SSW
ADEOS 3.9 04:22:01 10° NNE 04:27:15 69° ESE 04:32:27 10° S
Cosmos 1140 Rocket 4.5 04:23:49 10° S 04:28:48 48° ESE 04:33:47 10° NNE
Meteor 1-31 Rocket 3.1 04:26:33 10° NNE 04:30:25 65° ESE 04:34:13 10° S
Cosmos 2360 Rocket 2.7 04:27:08 10° NW 04:32:13 34° WSW 04:37:16 10° SSW
Cosmos 1709 Rocket 4.2 04:26:48 10° NNW 04:32:55 50° W 04:39:01 10° SSW
ARIANE 5 R/B 4.5 04:32:20 10° NNW 04:33:42 12° NW 04:33:42 12° NW
CZ-4B R/B 2.5 04:31:38 10° SE 04:34:35 41° ENE 04:37:30 10° N
Cosmos 2333 4.2 04:29:17 10° NNW 04:34:58 60° WSW 04:40:38 10° S
USA 276 2.2 04:36:12 44° W 04:37:00 66° NNW 04:40:11 10° ENE
Cosmos 909 Rocket 4.0 04:30:58 12° SW 04:37:22 83° WNW 04:43:41 10° NNE
Cosmos 2237 Rocket 3.8 04:32:37 10° NNW 04:37:52 36° NE 04:43:02 10° ESE
CZ-2C R/B 3.3 04:34:41 10° N 04:38:32 25° WNW 04:39:09 24° WNW
USA 238 DEB 3.9 04:36:58 10° NW 04:44:07 59° WSW 04:51:32 10° SSE
USA 238 3.9 04:37:04 10° NW 04:44:13 59° WSW 04:51:37 10° SSE
H-2A R/B 2.2 04:41:07 10° S 04:45:13 47° W 04:49:16 10° NNW
SeaSat 1 2.4 04:42:09 10° SSE 04:47:04 81° WSW 04:52:02 10° NNW
Cosmos 1437 Rocket 2.9 04:48:16 10° S 04:52:21 84° E 04:56:24 10° NNE
NOSS 0 Rocket 4.3 04:46:23 10° NNW 04:52:34 69° ENE 04:58:43 10° SE
SKYMED 2 3.5 04:48:29 10° SSE 04:52:49 85° WSW 04:57:12 10° NNW
Cosmos 1484 Rocket 3.5 04:49:33 10° N 04:52:50 31° WNW 04:54:50 18° WSW
ATLAS 3B R/B 4.0 04:46:22 10° NNW 04:52:52 40° NE 04:59:38 10° ESE
Cosmos 1151 Rocket 2.9 04:49:32 10° S 04:53:52 83° W 04:58:11 10° N
CZ-4C R/B 2.0 04:49:30 10° SW 04:54:17 83° NW 05:00:11 10° NE
Cosmos 2333 Rocket 2.4 04:48:47 10° NW 04:54:22 52° WSW 04:59:55 10° S
Cosmos 1782 2.8 04:51:53 10° S 04:55:49 87° E 04:59:47 10° N
Cosmos 2227 Rocket 4.3 04:51:22 10° SSE 04:56:11 30° ESE 05:01:02 10° NE
Cosmos 1633 Rocket 2.9 04:52:27 10° NNW 04:56:51 74° W 05:01:12 10° S
USA 267 4.5 04:53:33 10° NE 04:59:02 30° N 05:04:30 10° WNW
MOS 1 Rocket 3.1 04:56:02 10° S 05:00:21 66° W 05:04:55 10° NNW
Cosmos 2251 Rocket 4.4 04:59:28 14° WSW 05:03:16 31° WNW 05:08:02 10° N
CZ-4B R/B 3.9 05:01:13 10° N 05:04:46 45° WNW 05:08:15 10° SW
Meteor 1-26 Rocket 4.2 05:00:14 10° SSW 05:05:55 75° WNW 05:11:50 10° N
H-2A R/B 4.0 04:56:34 13° WSW 05:08:39 32° SSW 05:13:03 10° SE
COSMOS 2487 4.1 05:08:44 15° WNW 05:09:37 16° WNW 05:11:51 10° NNW
Cosmos 1689 Rocket 3.6 05:08:50 10° SE 05:11:29 37° ENE 05:14:09 10° N
Cosmos 2297 Rocket 3.2 05:06:09 10° S 05:11:34 50° ESE 05:17:00 10° NE
Meteor PRIRODA 3.7 05:08:38 10° NNE 05:12:23 90° ESE 05:16:06 10° SSW
Nadezhda 1 Rocket 4.0 05:08:56 10° S 05:15:04 90° WNW 05:21:20 10° N
Cosmos 2219 Rocket 2.6 05:11:55 10° NW 05:17:08 39° WSW 05:22:21 10° S
Cosmos 1954 Rocket 4.3 05:15:27 10° SSW 05:20:42 75° ESE 05:25:58 10° NNE
Cosmos 1980 3.9 05:16:43 10° NNW 05:22:26 80° ENE 05:28:05 10° SSE
COSMOS 2428 3.2 05:19:50 10° NW 05:25:07 40° WSW 05:30:24 10° S
GPS 2-04 Rocket1 4.4 05:22:57 10° SW 05:25:55 22° S 05:28:58 10° SE
SAR-Lupe-1 4.4 05:23:02 10° SSE 05:26:35 72° ENE 05:30:11 10° N
Cosmos 407 Rocket 3.8 05:22:40 10° SW 05:27:38 46° WNW 05:32:36 10° N
Cosmos 1500 3.1 05:24:02 10° NNW 05:27:50 74° W 05:31:37 10° S
Cosmos 1515 Rocket 3.5 05:25:19 10° SSW 05:29:37 73° W 05:34:01 10° N
Cosmos 1328 Rocket 3.9 05:25:54 10° SSW 05:29:57 40° WNW 05:34:02 10° N
CZ-3 R/B 3.7 05:18:50 10° WSW 05:30:23 25° S 05:35:23 10° SE
CENTAUR R/B 3.7 05:23:10 10° NW 05:30:50 42° WSW 05:39:00 10° S
Cosmos 2327 Rocket 4.5 05:29:22 10° NNW 05:35:25 65° W 05:41:24 10° S
Cosmos 1190 Rocket 4.3 05:32:06 10° SW 05:37:15 50° WNW 05:42:26 10° NNE
